| time (UTC) | temp F | wind direction | speed MPH | gust MPH | rain 1hr in | rain 24hr in | rain mn in | humidity % | barometer mb |
| 20260508222557 | 55 | 350 | 8.0 | 15.0 | 0.00 | 0.00 | 0.00 | 24 | 974.4 |
| 20260508222057 | 55 | 43 | 7.0 | 15.0 | 0.00 | 0.00 | 0.00 | 23 | 974.3 |
| 20260508221600 | 55 | 11 | 4.0 | 15.0 | 0.00 | 0.00 | 0.00 | 26 | 974.3 |
| 20260508221056 | 55 | 338 | 5.0 | 16.0 | 0.00 | 0.00 | 0.00 | 26 | 974.5 |
| 20260508220559 | 55 | 5 | 7.0 | 17.0 | 0.00 | 0.00 | 0.00 | 24 | 974.4 |
| 20260508220057 | 56 | 347 | 9.0 | 17.0 | 0.00 | 0.00 | 0.00 | 24 | 974.4 |
| 20260508215556 | 56 | 305 | 9.0 | 14.0 | 0.00 | 0.00 | 0.00 | 24 | 974.4 |
| 20260508215056 | 55 | 355 | 7.0 | 17.0 | 0.00 | 0.00 | 0.00 | 25 | 974.4 |
| 20260508214609 | 55 | 323 | 11.0 | 18.0 | 0.00 | 0.00 | 0.00 | 24 | 974.6 |
| 20260508214059 | 56 | 341 | 10.0 | 18.0 | 0.00 | 0.00 | 0.00 | 24 | 974.5 |
| 20260508213555 | 56 | 355 | 8.0 | 12.0 | 0.00 | 0.00 | 0.00 | 23 | 974.5 |
| 20260508213111 | 56 | 344 | 7.0 | 14.0 | 0.00 | 0.00 | 0.00 | 24 | 974.5 |
| 20260508212558 | 56 | 350 | 5.0 | 15.0 | 0.00 | 0.00 | 0.00 | 24 | 974.5 |
| 20260508212056 | 56 | 349 | 7.0 | 15.0 | 0.00 | 0.00 | 0.00 | 24 | 974.6 |
| 20260508211558 | 56 | 344 | 9.0 | 14.0 | 0.00 | 0.00 | 0.00 | 23 | 974.7 |
| 20260508211054 | 56 | 348 | 7.0 | 16.0 | 0.00 | 0.00 | 0.00 | 24 | 974.7 |
| 20260508210557 | 56 | 21 | 9.0 | 16.0 | 0.00 | 0.00 | 0.00 | 24 | 974.8 |
| 20260508210054 | 56 | 11 | 8.0 | 14.0 | 0.00 | 0.00 | 0.00 | 24 | 974.7 |
| 20260508205553 | 56 | 5 | 8.0 | 14.0 | 0.00 | 0.00 | 0.00 | 25 | 974.7 |
| 20260508205053 | 55 | 304 | 8.0 | 16.0 | 0.00 | 0.00 | 0.00 | 24 | 974.8 |
| 20260508204604 | 56 | 332 | 6.0 | 16.0 | 0.00 | 0.00 | 0.00 | 26 | 974.7 |
| 20260508204054 | 55 | 321 | 9.0 | 16.0 | 0.00 | 0.00 | 0.00 | 23 | 974.7 |
| 20260508203553 | 56 | 311 | 9.0 | 16.0 | 0.00 | 0.00 | 0.00 | 24 | 974.9 |
| 20260508203057 | 55 | 27 | 7.0 | 17.0 | 0.00 | 0.00 | 0.00 | 24 | 974.9 |
| 20260508202553 | 55 | 18 | 6.0 | 17.0 | 0.00 | 0.00 | 0.00 | 24 | 974.8 |
| 20260508202051 | 55 | 340 | 7.0 | 17.0 | 0.00 | 0.00 | 0.00 | 24 | 974.9 |
| 20260508201607 | 56 | 308 | 12.0 | 17.0 | 0.00 | 0.00 | 0.00 | 24 | 974.9 |
| 20260508201053 | 55 | 5 | 9.0 | 16.0 | 0.00 | 0.00 | 0.00 | 24 | 974.8 |
| 20260508200552 | 55 | 297 | 8.0 | 16.0 | 0.00 | 0.00 | 0.00 | 25 | 974.9 |
| 20260508200104 | 55 | 27 | 7.0 | 15.0 | 0.00 | 0.00 | 0.00 | 24 | 974.9 |
| 20260508195550 | 55 | 340 | 9.0 | 15.0 | 0.00 | 0.00 | 0.00 | 25 | 974.9 |
| 20260508195050 | 55 | 311 | 8.0 | 13.0 | 0.00 | 0.00 | 0.00 | 25 | 974.9 |
| 20260508194551 | 55 | 360 | 7.0 | 15.0 | 0.00 | 0.00 | 0.00 | 25 | 975.0 |
| 20260508194049 | 55 | 300 | 5.0 | 17.0 | 0.00 | 0.00 | 0.00 | 24 | 975.0 |
| 20260508193549 | 55 | 343 | 10.0 | 17.0 | 0.00 | 0.00 | 0.00 | 25 | 974.9 |
| 20260508193055 | 55 | 49 | 8.0 | 17.0 | 0.00 | 0.00 | 0.00 | 24 | 975.1 |
| 20260508192549 | 55 | 344 | 4.0 | 17.0 | 0.00 | 0.00 | 0.00 | 26 | 975.4 |
| 20260508192049 | 55 | 346 | 12.0 | 17.0 | 0.00 | 0.00 | 0.00 | 25 | 975.2 |
| 20260508191550 | 55 | 273 | 8.0 | 16.0 | 0.00 | 0.00 | 0.00 | 26 | 975.3 |
| 20260508191048 | 55 | 360 | 6.0 | 16.0 | 0.00 | 0.00 | 0.00 | 26 | 975.3 |
| 20260508190549 | 55 | 320 | 7.0 | 16.0 | 0.00 | 0.00 | 0.00 | 26 | 975.4 |
| 20260508190052 | 54 | 328 | 9.0 | 18.0 | 0.00 | 0.00 | 0.00 | 25 | 975.6 |
| 20260508185547 | 54 | 17 | 7.0 | 18.0 | 0.00 | 0.00 | 0.00 | 25 | 975.7 |
| 20260508185045 | 54 | 290 | 6.0 | 13.0 | 0.00 | 0.00 | 0.00 | 26 | 975.4 |
| 20260508184547 | 54 | 340 | 4.0 | 17.0 | 0.00 | 0.00 | 0.00 | 26 | 975.6 |
| 20260508184047 | 54 | 306 | 9.0 | 16.0 | 0.00 | 0.00 | 0.00 | 25 | 975.5 |
| 20260508183544 | 54 | 15 | 6.0 | 17.0 | 0.00 | 0.00 | 0.00 | 25 | 975.5 |
| 20260508183044 | 54 | 350 | 8.0 | 16.0 | 0.00 | 0.00 | 0.00 | 26 | 975.6 |
| 20260508182544 | 53 | 5 | 6.0 | 16.0 | 0.00 | 0.00 | 0.00 | 25 | 975.6 |
| 20260508182044 | 54 | 330 | 11.0 | 16.0 | 0.00 | 0.00 | 0.00 | 25 | 975.8 |
| 20260508181606 | 53 | 331 | 6.0 | 16.0 | 0.00 | 0.00 | 0.00 | 26 | 975.7 |
| 20260508181043 | 54 | 349 | 11.0 | 16.0 | 0.00 | 0.00 | 0.00 | 25 | 975.8 |
| 20260508180543 | 53 | 17 | 9.0 | 15.0 | 0.00 | 0.00 | 0.00 | 25 | 975.8 |
| 20260508180057 | 53 | 298 | 11.0 | 15.0 | 0.00 | 0.00 | 0.00 | 24 | 975.9 |
| 20260508175543 | 53 | 19 | 8.0 | 16.0 | 0.00 | 0.00 | 0.00 | 25 | 976.0 |
| 20260508175042 | 53 | 350 | 7.0 | 17.0 | 0.00 | 0.00 | 0.00 | 25 | 975.9 |
| 20260508174541 | 53 | 332 | 9.0 | 18.0 | 0.00 | 0.00 | 0.00 | 25 | 976.0 |
| 20260508174039 | 53 | 346 | 10.0 | 18.0 | 0.00 | 0.00 | 0.00 | 25 | 976.1 |
| 20260508173539 | 52 | 9 | 9.0 | 18.0 | 0.00 | 0.00 | 0.00 | 25 | 976.2 |
| 20260508173045 | 52 | 344 | 10.0 | 18.0 | 0.00 | 0.00 | 0.00 | 25 | 976.1 |
| 20260508172537 | 53 | 325 | 11.0 | 17.0 | 0.00 | 0.00 | 0.00 | 24 | 976.1 |
| 20260508172037 | 52 | 295 | 11.0 | 19.0 | 0.00 | 0.00 | 0.00 | 23 | 976.1 |
| 20260508171538 | 52 | 297 | 9.0 | 19.0 | 0.00 | 0.00 | 0.00 | 25 | 976.1 |
| 20260508171034 | 53 | 342 | 8.0 | 16.0 | 0.00 | 0.00 | 0.00 | 25 | 976.2 |
| 20260508170533 | 52 | 12 | 8.0 | 17.0 | 0.00 | 0.00 | 0.00 | 25 | 976.4 |
| 20260508170032 | 52 | 360 | 10.0 | 21.0 | 0.00 | 0.00 | 0.00 | 25 | 976.4 |
| 20260508165531 | 52 | 346 | 11.0 | 21.0 | 0.00 | 0.00 | 0.00 | 25 | 976.4 |
| 20260508165033 | 52 | 355 | 10.0 | 15.0 | 0.00 | 0.00 | 0.00 | 26 | 976.3 |
| 20260508164537 | 52 | 328 | 10.0 | 16.0 | 0.00 | 0.00 | 0.00 | 25 | 976.2 |
| 20260508164027 | 52 | 319 | 11.0 | 16.0 | 0.00 | 0.00 | 0.00 | 25 | 976.2 |
| 20260508163525 | 52 | 318 | 8.0 | 17.0 | 0.00 | 0.00 | 0.00 | 26 | 976.2 |
| 20260508163024 | 52 | 333 | 9.0 | 17.0 | 0.00 | 0.00 | 0.00 | 25 | 976.1 |
| 20260508162523 | 51 | 300 | 11.0 | 17.0 | 0.00 | 0.00 | 0.00 | 27 | 976.1 |
| 20260508162024 | 52 | 313 | 11.0 | 17.0 | 0.00 | 0.00 | 0.00 | 25 | 976.1 |
| 20260508161520 | 52 | 328 | 9.0 | 15.0 | 0.00 | 0.00 | 0.00 | 28 | 976.2 |
| 20260508161019 | 51 | 355 | 9.0 | 15.0 | 0.00 | 0.00 | 0.00 | 27 | 976.3 |
| 20260508160518 | 51 | 294 | 10.0 | 15.0 | 0.00 | 0.00 | 0.00 | 27 | 976.4 |
| 20260508160032 | 51 | 5 | 10.0 | 15.0 | 0.00 | 0.00 | 0.00 | 27 | 976.3 |
| 20260508155515 | 51 | 331 | 9.0 | 14.0 | 0.00 | 0.00 | 0.00 | 29 | 976.3 |
| 20260508155014 | 50 | 355 | 9.0 | 16.0 | 0.00 | 0.00 | 0.00 | 30 | 976.3 |
| 20260508154513 | 50 | 306 | 11.0 | 15.0 | 0.00 | 0.00 | 0.00 | 31 | 976.3 |
| 20260508154015 | 50 | 331 | 5.0 | 13.0 | 0.00 | 0.00 | 0.00 | 31 | 976.2 |
| 20260508153510 | 50 | 360 | 6.0 | 16.0 | 0.00 | 0.00 | 0.00 | 33 | 976.1 |
| 20260508153009 | 50 | 344 | 11.0 | 16.0 | 0.00 | 0.00 | 0.00 | 31 | 976.1 |
| 20260508152507 | 50 | 314 | 7.0 | 15.0 | 0.00 | 0.00 | 0.00 | 33 | 976.0 |
| 20260508152006 | 49 | 326 | 10.0 | 16.0 | 0.00 | 0.00 | 0.00 | 37 | 976.4 |
| 20260508151507 | 49 | 296 | 10.0 | 16.0 | 0.00 | 0.00 | 0.00 | 41 | 976.4 |
| 20260508151006 | 49 | 312 | 9.0 | 15.0 | 0.00 | 0.00 | 0.00 | 39 | 976.3 |
| 20260508150508 | 49 | 279 | 10.0 | 16.0 | 0.00 | 0.00 | 0.00 | 46 | 976.2 |
| 20260508150005 | 49 | 291 | 11.0 | 15.0 | 0.00 | 0.00 | 0.00 | 45 | 976.3 |
| 20260508145507 | 49 | 269 | 8.0 | 15.0 | 0.00 | 0.00 | 0.00 | 46 | 976.2 |
| 20260508145002 | 49 | 323 | 10.0 | 18.0 | 0.00 | 0.00 | 0.00 | 46 | 976.1 |
| 20260508144502 | 49 | 331 | 8.0 | 16.0 | 0.00 | 0.00 | 0.00 | 44 | 976.1 |
| 20260508144003 | 49 | 322 | 9.0 | 15.0 | 0.00 | 0.00 | 0.00 | 44 | 976.1 |
| 20260508143502 | 49 | 301 | 9.0 | 15.0 | 0.00 | 0.00 | 0.00 | 41 | 976.1 |
| 20260508143101 | 49 | 298 | 9.0 | 15.0 | 0.00 | 0.00 | 0.00 | 38 | 976.0 |
| 20260508142559 | 49 | 332 | 8.0 | 13.0 | 0.00 | 0.00 | 0.00 | 37 | 976.0 |
| 20260508142059 | 49 | 296 | 7.0 | 14.0 | 0.00 | 0.00 | 0.00 | 38 | 976.0 |
| 20260508141615 | 49 | 21 | 9.0 | 14.0 | 0.00 | 0.00 | 0.00 | 37 | 976.0 |
| 20260508141058 | 49 | 302 | 9.0 | 14.0 | 0.00 | 0.00 | 0.00 | 37 | 975.9 |
| 20260508140600 | 49 | 329 | 4.0 | 11.0 | 0.00 | 0.00 | 0.00 | 38 | 975.9 |
| 20260508140110 | 48 | 351 | 7.0 | 11.0 | 0.00 | 0.00 | 0.00 | 37 | 975.9 |
| 20260508135559 | 48 | 355 | 4.0 | 9.0 | 0.00 | 0.00 | 0.00 | 35 | 975.9 |
| 20260508135053 | 48 | 355 | 3.0 | 10.0 | 0.00 | 0.00 | 0.00 | 36 | 975.9 |
| 20260508134553 | 47 | 345 | 4.0 | 10.0 | 0.00 | 0.00 | 0.00 | 37 | 975.8 |
| 20260508134051 | 47 | 325 | 3.0 | 8.0 | 0.00 | 0.00 | 0.00 | 38 | 975.7 |
| 20260508133552 | 47 | 35 | 4.0 | 8.0 | 0.00 | 0.00 | 0.00 | 38 | 975.7 |
| 20260508133051 | 46 | 37 | 3.0 | 8.0 | 0.00 | 0.00 | 0.00 | 40 | 975.7 |
| 20260508132547 | 46 | 355 | 2.0 | 7.0 | 0.00 | 0.00 | 0.00 | 40 | 975.6 |
| 20260508132046 | 45 | 9 | 1.0 | 7.0 | 0.00 | 0.00 | 0.00 | 42 | 975.6 |
| 20260508131545 | 44 | 22 | 2.0 | 6.0 | 0.00 | 0.00 | 0.00 | 44 | 975.5 |
| 20260508131044 | 43 | 329 | 2.0 | 8.0 | 0.00 | 0.00 | 0.00 | 44 | 975.5 |
| 20260508130545 | 43 | 360 | 4.0 | 8.0 | 0.00 | 0.00 | 0.00 | 44 | 975.4 |
| 20260508130043 | 42 | 333 | 2.0 | 9.0 | 0.00 | 0.00 | 0.00 | 45 | 975.3 |
| 20260508125539 | 42 | 342 | 4.0 | 8.0 | 0.00 | 0.00 | 0.00 | 46 | 975.3 |
| 20260508125037 | 41 | 346 | 5.0 | 8.0 | 0.00 | 0.00 | 0.00 | 47 | 975.2 |
| 20260508124537 | 40 | 339 | 4.0 | 8.0 | 0.00 | 0.00 | 0.00 | 48 | 975.2 |
| 20260508124037 | 40 | 348 | 3.0 | 5.0 | 0.00 | 0.00 | 0.00 | 47 | 975.1 |
| 20260508123540 | 40 | 26 | 1.0 | 6.0 | 0.00 | 0.00 | 0.00 | 46 | 974.8 |
| 20260508123037 | 40 | 38 | 2.0 | 6.0 | 0.00 | 0.00 | 0.00 | 46 | 974.7 |
| 20260508122537 | 40 | 41 | 2.0 | 6.0 | 0.00 | 0.00 | 0.00 | 47 | 974.6 |
| 20260508122038 | 39 | 42 | 2.0 | 6.0 | 0.00 | 0.00 | 0.00 | 48 | 974.6 |
| 20260508121537 | 39 | 5 | 2.0 | 8.0 | 0.00 | 0.00 | 0.00 | 48 | 974.6 |
| 20260508121036 | 39 | 346 | 3.0 | 6.0 | 0.00 | 0.00 | 0.00 | 48 | 974.7 |
| 20260508120536 | 39 | 43 | 3.0 | 8.0 | 0.00 | 0.00 | 0.00 | 48 | 974.5 |
| 20260508120039 | 38 | 5 | 4.0 | 8.0 | 0.00 | 0.00 | 0.00 | 48 | 974.4 |
| 20260508115536 | 38 | 331 | 2.0 | 5.0 | 0.00 | 0.00 | 0.00 | 47 | 974.3 |
| 20260508115034 | 38 | 92 | 1.0 | 4.0 | 0.00 | 0.00 | 0.00 | 49 | 974.0 |
| 20260508114534 | 38 | 92 | 2.0 | 6.0 | 0.00 | 0.00 | 0.00 | 49 | 973.8 |
| 20260508114034 | 38 | 92 | 3.0 | 6.0 | 0.00 | 0.00 | 0.00 | 49 | 973.7 |
| 20260508113534 | 38 | 92 | 2.0 | 4.0 | 0.00 | 0.00 | 0.00 | 49 | 973.8 |
| 20260508113035 | 38 | 66 | 2.0 | 4.0 | 0.00 | 0.00 | 0.00 | 48 | 973.8 |
| 20260508112534 | 38 | 36 | 2.0 | 4.0 | 0.00 | 0.00 | 0.00 | 49 | 973.8 |
| 20260508112034 | 38 | 39 | 1.0 | 4.0 | 0.00 | 0.00 | 0.00 | 49 | 973.9 |
| 20260508111550 | 38 | 57 | 1.0 | 3.0 | 0.00 | 0.00 | 0.00 | 49 | 974.0 |
| 20260508111034 | 38 | 71 | 0.0 | 3.0 | 0.00 | 0.00 | 0.00 | 50 | 973.8 |
| 20260508110536 | 38 | 57 | 1.0 | 4.0 | 0.00 | 0.00 | 0.00 | 50 | 973.9 |
| 20260508110037 | 38 | 45 | 1.0 | 4.0 | 0.00 | 0.00 | 0.00 | 50 | 973.9 |
| 20260508105536 | 38 | 43 | 2.0 | 4.0 | 0.00 | 0.00 | 0.00 | 50 | 973.8 |
| 20260508105033 | 38 | 44 | 2.0 | 6.0 | 0.00 | 0.00 | 0.00 | 50 | 973.9 |
| 20260508104532 | 37 | 46 | 2.0 | 4.0 | 0.00 | 0.00 | 0.00 | 49 | 973.9 |
| 20260508104032 | 37 | 90 | 0.0 | 3.0 | 0.00 | 0.00 | 0.00 | 50 | 973.9 |
| 20260508103532 | 37 | 91 | 1.0 | 3.0 | 0.00 | 0.00 | 0.00 | 50 | 973.9 |
| 20260508103037 | 37 | 91 | 2.0 | 3.0 | 0.00 | 0.00 | 0.00 | 51 | 973.8 |
| 20260508102531 | 37 | 91 | 2.0 | 3.0 | 0.00 | 0.00 | 0.00 | 52 | 974.0 |
| 20260508102031 | 37 | 91 | 1.0 | 3.0 | 0.00 | 0.00 | 0.00 | 50 | 973.9 |
| 20260508101539 | 38 | 91 | 2.0 | 4.0 | 0.00 | 0.00 | 0.00 | 50 | 974.0 |
| 20260508101031 | 38 | 360 | 2.0 | 6.0 | 0.00 | 0.00 | 0.00 | 50 | 974.0 |
| 20260508100530 | 38 | 121 | 2.0 | 6.0 | 0.00 | 0.00 | 0.00 | 50 | 974.0 |
| 20260508100030 | 38 | 111 | 2.0 | 6.0 | 0.00 | 0.00 | 0.00 | 50 | 973.8 |
| 20260508095530 | 38 | 150 | 3.0 | 6.0 | 0.00 | 0.00 | 0.00 | 50 | 973.9 |
| 20260508095029 | 38 | 123 | 3.0 | 6.0 | 0.00 | 0.00 | 0.00 | 50 | 974.0 |
| 20260508094529 | 38 | 123 | 3.0 | 5.0 | 0.00 | 0.00 | 0.00 | 50 | 974.0 |
| 20260508094028 | 38 | 126 | 3.0 | 6.0 | 0.00 | 0.00 | 0.00 | 50 | 974.2 |
| 20260508093528 | 38 | 130 | 3.0 | 4.0 | 0.00 | 0.00 | 0.00 | 50 | 974.2 |
| 20260508093027 | 38 | 121 | 2.0 | 4.0 | 0.00 | 0.00 | 0.00 | 50 | 974.4 |
| 20260508092526 | 38 | 132 | 2.0 | 5.0 | 0.00 | 0.00 | 0.00 | 50 | 974.4 |
| 20260508092026 | 38 | 139 | 1.0 | 7.0 | 0.00 | 0.00 | 0.00 | 50 | 974.5 |
| 20260508091526 | 38 | 140 | 2.0 | 7.0 | 0.00 | 0.00 | 0.00 | 49 | 974.5 |
| 20260508091026 | 38 | 148 | 2.0 | 5.0 | 0.00 | 0.00 | 0.00 | 49 | 974.6 |
| 20260508090526 | 38 | 133 | 2.0 | 6.0 | 0.00 | 0.00 | 0.00 | 50 | 974.5 |
| 20260508090029 | 38 | 125 | 2.0 | 6.0 | 0.00 | 0.00 | 0.00 | 49 | 974.6 |
| 20260508085524 | 38 | 142 | 3.0 | 4.0 | 0.00 | 0.00 | 0.00 | 49 | 974.6 |
| 20260508085023 | 38 | 126 | 2.0 | 4.0 | 0.00 | 0.00 | 0.00 | 49 | 974.7 |
| 20260508084522 | 38 | 132 | 2.0 | 4.0 | 0.00 | 0.00 | 0.00 | 50 | 974.8 |
| 20260508084021 | 38 | 138 | 2.0 | 4.0 | 0.00 | 0.00 | 0.00 | 50 | 974.9 |
| 20260508083522 | 38 | 152 | 2.0 | 3.0 | 0.00 | 0.00 | 0.00 | 51 | 975.0 |
| 20260508083021 | 37 | 107 | 1.0 | 3.0 | 0.00 | 0.00 | 0.00 | 53 | 975.0 |
| 20260508082520 | 37 | 107 | 2.0 | 3.0 | 0.00 | 0.00 | 0.00 | 52 | 975.1 |
| 20260508082019 | 37 | 107 | 1.0 | 3.0 | 0.00 | 0.00 | 0.00 | 52 | 975.2 |
| 20260508081519 | 37 | 107 | 2.0 | 4.0 | 0.00 | 0.00 | 0.00 | 52 | 975.3 |
| 20260508081018 | 37 | 107 | 3.0 | 4.0 | 0.00 | 0.00 | 0.00 | 51 | 975.2 |
| 20260508080518 | 37 | 107 | 3.0 | 4.0 | 0.00 | 0.00 | 0.00 | 51 | 975.3 |
| 20260508080017 | 37 | 133 | 2.0 | 3.0 | 0.00 | 0.00 | 0.00 | 52 | 975.3 |
| 20260508075517 | 37 | 133 | 1.0 | 3.0 | 0.00 | 0.00 | 0.00 | 52 | 975.4 |
| 20260508075015 | 37 | 133 | 1.0 | 2.0 | 0.00 | 0.00 | 0.00 | 52 | 975.6 |
| 20260508074515 | 37 | 133 | 1.0 | 2.0 | 0.00 | 0.00 | 0.00 | 52 | 975.7 |
| 20260508074014 | 37 | 133 | 0.0 | 3.0 | 0.00 | 0.00 | 0.00 | 51 | 975.8 |
| 20260508073514 | 38 | 133 | 1.0 | 3.0 | 0.00 | 0.00 | 0.00 | 50 | 975.8 |
| 20260508073013 | 39 | 133 | 1.0 | 2.0 | 0.00 | 0.00 | 0.00 | 49 | 975.8 |
| 20260508072512 | 39 | 133 | 1.0 | 4.0 | 0.00 | 0.00 | 0.00 | 47 | 975.9 |
| 20260508072012 | 40 | 133 | 2.0 | 4.0 | 0.00 | 0.00 | 0.00 | 45 | 975.9 |
| 20260508071513 | 40 | 142 | 1.0 | 4.0 | 0.00 | 0.00 | 0.00 | 45 | 976.0 |
| 20260508071017 | 40 | 129 | 2.0 | 4.0 | 0.00 | 0.00 | 0.00 | 44 | 976.0 |
| 20260508070541 | 40 | 148 | 2.0 | 5.0 | 0.00 | 0.00 | 0.00 | 45 | 976.0 |
| 20260508070011 | 40 | 156 | 0.0 | 4.0 | 0.00 | 0.00 | 0.00 | 45 | 976.0 |
| 20260508065510 | 40 | 132 | 2.0 | 6.0 | 0.00 | 0.00 | 0.00 | 44 | 976.0 |
| 20260508065009 | 40 | 141 | 3.0 | 6.0 | 0.00 | 0.00 | 0.00 | 45 | 976.1 |
| 20260508064515 | 40 | 144 | 2.0 | 6.0 | 0.00 | 0.00 | 0.00 | 45 | 976.1 |
| 20260508064008 | 40 | 130 | 2.0 | 6.0 | 0.00 | 0.00 | 0.00 | 45 | 976.2 |
| 20260508063507 | 40 | 135 | 2.0 | 4.0 | 0.00 | 0.00 | 0.00 | 45 | 976.3 |
| 20260508063007 | 39 | 128 | 1.0 | 3.0 | 0.00 | 0.00 | 0.00 | 46 | 976.4 |
| 20260508062505 | 39 | 131 | 1.0 | 4.0 | 0.00 | 0.00 | 0.00 | 47 | 976.4 |
| 20260508062005 | 39 | 164 | 2.0 | 4.0 | 0.00 | 0.00 | 0.00 | 47 | 976.4 |
| 20260508061512 | 38 | 126 | 2.0 | 4.0 | 0.00 | 0.00 | 0.00 | 48 | 976.4 |
| 20260508061008 | 38 | 123 | 0.0 | 2.0 | 0.00 | 0.00 | 0.00 | 49 | 976.5 |
| 20260508060504 | 38 | 123 | 0.0 | 2.0 | 0.00 | 0.00 | 0.00 | 49 | 976.6 |
| 20260508060004 | 39 | 123 | 1.0 | 4.0 | 0.00 | 0.00 | 0.00 | 48 | 976.6 |
| 20260508055503 | 39 | 123 | 2.0 | 4.0 | 0.00 | 0.00 | 0.00 | 46 | 976.6 |
| 20260508055002 | 39 | 132 | 2.0 | 5.0 | 0.00 | 0.00 | 0.00 | 45 | 976.6 |
| 20260508054502 | 39 | 140 | 3.0 | 6.0 | 0.00 | 0.00 | 0.00 | 45 | 976.7 |
| 20260508054100 | 39 | 128 | 2.0 | 3.0 | 0.00 | 0.00 | 0.00 | 46 | 976.7 |
| 20260508053559 | 38 | 89 | 0.0 | 2.0 | 0.00 | 0.00 | 0.00 | 48 | 976.9 |
| 20260508053102 | 38 | 89 | 0.0 | 1.0 | 0.00 | 0.00 | 0.00 | 50 | 977.0 |
| 20260508052557 | 38 | 89 | 0.0 | 1.0 | 0.00 | 0.00 | 0.00 | 50 | 977.0 |
| 20260508052056 | 38 | 89 | 0.0 | 2.0 | 0.00 | 0.00 | 0.00 | 49 | 977.1 |
| 20260508051556 | 37 | 89 | 0.0 | 1.0 | 0.00 | 0.00 | 0.00 | 47 | 977.0 |
| 20260508051055 | 37 | 89 | 0.0 | 1.0 | 0.00 | 0.00 | 0.00 | 47 | 977.0 |
| 20260508050555 | 37 | 89 | 0.0 | 2.0 | 0.00 | 0.00 | 0.00 | 47 | 977.0 |
| 20260508050054 | 37 | 89 | 0.0 | 2.0 | 0.00 | 0.00 | 0.00 | 47 | 977.1 |
| 20260508045553 | 37 | 89 | 0.0 | 2.0 | 0.00 | 0.00 | 0.00 | 46 | 977.1 |
| 20260508045052 | 37 | 89 | 0.0 | 2.0 | 0.00 | 0.00 | 0.00 | 46 | 977.0 |
| 20260508044552 | 36 | 89 | 1.0 | 2.0 | 0.00 | 0.00 | 0.00 | 46 | 977.3 |
| 20260508044054 | 36 | 89 | 0.0 | 1.0 | 0.00 | 0.00 | 0.00 | 46 | 977.3 |
| 20260508043553 | 36 | 89 | 0.0 | 1.0 | 0.00 | 0.00 | 0.00 | 46 | 977.3 |
| 20260508043059 | 36 | 89 | 0.0 | 2.0 | 0.00 | 0.00 | 0.00 | 46 | 977.4 |
| 20260508042552 | 36 | 89 | 0.0 | 3.0 | 0.00 | 0.00 | 0.00 | 46 | 977.4 |
| 20260508042052 | 36 | 89 | 0.0 | 3.0 | 0.00 | 0.00 | 0.00 | 46 | 977.4 |
| 20260508041556 | 36 | 89 | 1.0 | 3.0 | 0.00 | 0.00 | 0.00 | 46 | 977.5 |
| 20260508041051 | 36 | 90 | 0.0 | 2.0 | 0.00 | 0.00 | 0.00 | 45 | 977.5 |
| 20260508040551 | 37 | 90 | 0.0 | 2.0 | 0.00 | 0.00 | 0.00 | 44 | 977.6 |
| 20260508040050 | 37 | 90 | 0.0 | 2.0 | 0.00 | 0.00 | 0.00 | 44 | 977.5 |
| 20260508035550 | 38 | 90 | 0.0 | 2.0 | 0.00 | 0.00 | 0.00 | 43 | 977.6 |
| 20260508035049 | 39 | 90 | 0.0 | 2.0 | 0.00 | 0.00 | 0.00 | 42 | 977.5 |
| 20260508034555 | 39 | 90 | 0.0 | 1.0 | 0.00 | 0.00 | 0.00 | 43 | 977.7 |
| 20260508034049 | 39 | 90 | 0.0 | 1.0 | 0.00 | 0.00 | 0.00 | 43 | 977.5 |
| 20260508033548 | 39 | 90 | 0.0 | 1.0 | 0.00 | 0.00 | 0.00 | 43 | 977.5 |
| 20260508033048 | 40 | 90 | 0.0 | 1.0 | 0.00 | 0.00 | 0.00 | 42 | 977.7 |
| 20260508032548 | 40 | 90 | 0.0 | 0.0 | 0.00 | 0.00 | 0.00 | 42 | 977.7 |
| 20260508032049 | 40 | 90 | 0.0 | 1.0 | 0.00 | 0.00 | 0.00 | 41 | 977.7 |
| 20260508031547 | 41 | 90 | 0.0 | 1.0 | 0.00 | 0.00 | 0.00 | 41 | 977.9 |
| 20260508031046 | 41 | 90 | 0.0 | 1.0 | 0.00 | 0.00 | 0.00 | 41 | 977.8 |
| 20260508030548 | 41 | 90 | 0.0 | 2.0 | 0.00 | 0.00 | 0.00 | 40 | 977.8 |
| 20260508030047 | 42 | 90 | 0.0 | 2.0 | 0.00 | 0.00 | 0.00 | 41 | 977.9 |
| 20260508025548 | 42 | 90 | 0.0 | 2.0 | 0.00 | 0.00 | 0.00 | 39 | 977.9 |
| 20260508025047 | 43 | 42 | 0.0 | 1.0 | 0.00 | 0.00 | 0.00 | 41 | 977.8 |
| 20260508024549 | 43 | 42 | 0.0 | 1.0 | 0.00 | 0.00 | 0.00 | 38 | 977.9 |
| 20260508024048 | 43 | 42 | 0.0 | 1.0 | 0.00 | 0.00 | 0.00 | 39 | 977.9 |
| 20260508023546 | 43 | 42 | 0.0 | 1.0 | 0.00 | 0.00 | 0.00 | 40 | 977.9 |
| 20260508023050 | 43 | 42 | 0.0 | 0.0 | 0.00 | 0.00 | 0.00 | 41 | 978.1 |
| 20260508022546 | 44 | 42 | 0.0 | 2.0 | 0.00 | 0.00 | 0.00 | 41 | 978.0 |
| 20260508022048 | 44 | 42 | 0.0 | 3.0 | 0.00 | 0.00 | 0.00 | 42 | 978.0 |
| 20260508021547 | 44 | 42 | 1.0 | 3.0 | 0.00 | 0.00 | 0.00 | 40 | 977.9 |
| 20260508021045 | 45 | 42 | 0.0 | 0.0 | 0.00 | 0.00 | 0.00 | 37 | 977.9 |
| 20260508020545 | 45 | 42 | 0.0 | 0.0 | 0.00 | 0.00 | 0.00 | 35 | 977.8 |
| 20260508020045 | 46 | 42 | 0.0 | 0.0 | 0.00 | 0.00 | 0.00 | 34 | 977.8 |
| 20260508015544 | 46 | 42 | 0.0 | 0.0 | 0.00 | 0.00 | 0.00 | 34 | 977.8 |
| 20260508015044 | 47 | 42 | 0.0 | 0.0 | 0.00 | 0.00 | 0.00 | 33 | 977.8 |
| 20260508014551 | 47 | 42 | 0.0 | 1.0 | 0.00 | 0.00 | 0.00 | 32 | 977.8 |
| 20260508014048 | 47 | 42 | 0.0 | 1.0 | 0.00 | 0.00 | 0.00 | 31 | 977.8 |
| 20260508013543 | 48 | 42 | 0.0 | 1.0 | 0.00 | 0.00 | 0.00 | 32 | 977.9 |
| 20260508013046 | 48 | 42 | 0.0 | 1.0 | 0.00 | 0.00 | 0.00 | 32 | 977.9 |
| 20260508012543 | 49 | 42 | 0.0 | 3.0 | 0.00 | 0.00 | 0.00 | 31 | 978.0 |
| 20260508012042 | 49 | 42 | 1.0 | 3.0 | 0.00 | 0.00 | 0.00 | 30 | 978.0 |
| 20260508011545 | 49 | 43 | 1.0 | 4.0 | 0.00 | 0.00 | 0.00 | 30 | 978.0 |
| 20260508011042 | 49 | 32 | 1.0 | 4.0 | 0.00 | 0.00 | 0.00 | 30 | 978.1 |
| 20260508010545 | 49 | 9 | 0.0 | 3.0 | 0.00 | 0.00 | 0.00 | 31 | 978.1 |
| 20260508010044 | 50 | 15 | 1.0 | 5.0 | 0.00 | 0.00 | 0.00 | 30 | 978.1 |
| 20260508005543 | 50 | 344 | 2.0 | 5.0 | 0.00 | 0.00 | 0.00 | 29 | 978.1 |
| 20260508005040 | 50 | 10 | 1.0 | 5.0 | 0.00 | 0.00 | 0.00 | 29 | 978.2 |
| 20260508004542 | 50 | 360 | 1.0 | 6.0 | 0.00 | 0.00 | 0.00 | 29 | 978.2 |
| 20260508004040 | 51 | 355 | 2.0 | 8.0 | 0.00 | 0.00 | 0.00 | 28 | 978.2 |
| 20260508003540 | 51 | 355 | 3.0 | 8.0 | 0.00 | 0.00 | 0.00 | 28 | 978.1 |
| 20260508003056 | 51 | 24 | 3.0 | 8.0 | 0.00 | 0.00 | 0.00 | 27 | 978.1 |
| 20260508002540 | 51 | 325 | 3.0 | 11.0 | 0.00 | 0.00 | 0.00 | 27 | 978.2 |
| 20260508002040 | 52 | 5 | 3.0 | 11.0 | 0.00 | 0.00 | 0.00 | 27 | 978.3 |
| 20260508001543 | 52 | 355 | 4.0 | 10.0 | 0.00 | 0.00 | 0.00 | 27 | 978.3 |
| 20260508001039 | 52 | 344 | 4.0 | 10.0 | 0.00 | 0.00 | 0.00 | 26 | 978.3 |
| 20260508000540 | 52 | 19 | 3.0 | 11.0 | 0.00 | 0.00 | 0.00 | 27 | 978.3 |
| 20260508000043 | 53 | 319 | 5.0 | 12.0 | 0.00 | 0.00 | 0.00 | 27 | 978.5 |
| 20260507235541 | 53 | 318 | 6.0 | 12.0 | 0.00 | 0.00 | 0.00 | 27 | 978.3 |
| 20260507235038 | 53 | 327 | 6.0 | 11.0 | 0.00 | 0.00 | 0.00 | 26 | 978.3 |
| 20260507234539 | 53 | 355 | 5.0 | 10.0 | 0.00 | 0.00 | 0.00 | 26 | 978.5 |
| 20260507234038 | 54 | 33 | 4.0 | 10.0 | 0.00 | 0.00 | 0.00 | 26 | 978.4 |
| 20260507233538 | 54 | 9 | 3.0 | 9.0 | 0.00 | 0.00 | 0.00 | 26 | 978.3 |
| 20260507233038 | 54 | 349 | 4.0 | 8.0 | 0.00 | 0.00 | 0.00 | 26 | 978.4 |
| 20260507232537 | 54 | 335 | 3.0 | 10.0 | 0.00 | 0.00 | 0.00 | 25 | 978.4 |
| 20260507232037 | 54 | 9 | 5.0 | 10.0 | 0.00 | 0.00 | 0.00 | 25 | 978.2 |
| 20260507231540 | 54 | 17 | 4.0 | 9.0 | 0.00 | 0.00 | 0.00 | 26 | 978.1 |
| 20260507231037 | 54 | 65 | 2.0 | 12.0 | 0.00 | 0.00 | 0.00 | 25 | 978.2 |
| 20260507230537 | 54 | 341 | 5.0 | 12.0 | 0.00 | 0.00 | 0.00 | 27 | 978.2 |
| 20260507230042 | 54 | 360 | 5.0 | 9.0 | 0.00 | 0.00 | 0.00 | 25 | 978.2 |
| 20260507225538 | 54 | 45 | 3.0 | 7.0 | 0.00 | 0.00 | 0.00 | 25 | 978.3 |
| 20260507225037 | 54 | 65 | 4.0 | 8.0 | 0.00 | 0.00 | 0.00 | 25 | 978.2 |
| 20260507224554 | 54 | 5 | 3.0 | 8.0 | 0.00 | 0.00 | 0.00 | 25 | 978.1 |
| 20260507224036 | 54 | 64 | 4.0 | 9.0 | 0.00 | 0.00 | 0.00 | 25 | 978.2 |
| 20260507223536 | 54 | 325 | 3.0 | 12.0 | 0.00 | 0.00 | 0.00 | 26 | 978.2 |
| 20260507223036 | 54 | 329 | 7.0 | 12.0 | 0.00 | 0.00 | 0.00 | 26 | 978.2 |